,,,PA_Meas_PMT16A,,PR_Meas_QMR101_102,,RH_Meas_QMH101,,SR_Meas_QMS101,,TA_Meas_QMH101,,GenWind,,GenWind,
date,time,status,PA,status,PR,status,RH,status,SR,status,TA,status,DirAvg,status,SpdAvg,
2009-02-21, 00:00:04,VALID,1010.56,VALID,0,VALID,92.0352,VALID,0,VALID,23.8109,VALID,94,VALID,0,
2009-02-21, 00:01:04,VALID,1010.55,VALID,0,VALID,92.0886,VALID,0,VALID,23.7896,VALID,94,VALID,0,
2009-02-21, 00:02:04,VALID,1010.55,VALID,0,VALID,92.0962,VALID,0,VALID,23.8109,VALID,88,VALID,0.153516,
2009-02-21, 00:03:04,VALID,1010.53,VALID,0,VALID,92.1267,VALID,0,VALID,23.8109,VALID,87,VALID,0,
2009-02-21, 00:04:04,VALID,1010.53,VALID,0,VALID,92.1954,VALID,0,VALID,23.8304,VALID,87,VALID,0,
2009-02-21, 00:05:04,VALID,1010.52,VALID,0,VALID,92.1877,VALID,0,VALID,23.8499,VALID,308,VALID,0.102344,
2009-02-21, 00:06:04,VALID,1010.53,VALID,0,VALID,92.1954,VALID,0,VALID,23.8694,VALID,263,VALID,0.146875,
2009-02-21, 00:07:04,VALID,1010.49,VALID,0,VALID,92.142,VALID,0,VALID,23.8889,VALID,263,VALID,0,
2009-02-21, 00:08:04,VALID,1010.47,VALID,0,VALID,92.0733,VALID,0,VALID,23.9084,VALID,264,VALID,0.0273438,
2009-02-21, 00:09:04,VALID,1010.43,VALID,0,VALID,91.9895,VALID,0,VALID,23.9084,VALID,285,VALID,0,
2009-02-21, 00:10:04,VALID,1010.44,VALID,0,VALID,91.9132,VALID,0,VALID,23.8871,VALID,285,VALID,0,
2009-02-21, 00:11:04,VALID,1010.44,VALID,0,VALID,91.898,VALID,0,VALID,23.9278,VALID,285,VALID,0,
2009-02-21, 00:12:04,VALID,1010.41,VALID,0,VALID,91.8598,VALID,0,VALID,23.9473,VALID,285,VALID,0,
2009-02-21, 00:13:04,VALID,1010.44,VALID,0,VALID,91.7759,VALID,0,VALID,23.9668,VALID,285,VALID,0,
2009-02-21, 00:14:04,VALID,1010.41,VALID,0,VALID,91.7149,VALID,0,VALID,23.9668,VALID,285,VALID,0,
2009-02-21, 00:15:04,VALID,1010.41,VALID,0,VALID,91.6539,VALID,0,VALID,23.9455,VALID,283,VALID,0,
2009-02-21, 00:16:04,VALID,1010.38,VALID,0,VALID,91.5472,VALID,0,VALID,23.9668,VALID,241,VALID,0,
2009-02-21, 00:17:04,VALID,1010.34,VALID,0,VALID,91.3718,VALID,0,VALID,23.965,VALID,231,VALID,0.358203,
2009-02-21, 00:18:04,VALID,1010.31,VALID,0,VALID,91.1811,VALID,0,VALID,24.0058,VALID,208,VALID,0.478516,
2009-02-21, 00:19:04,VALID,1010.27,VALID,0,VALID,91.021,VALID,0,VALID,24.0058,VALID,198,VALID,0.516016,
2009-02-21, 00:20:04,VALID,1010.25,VALID,0,VALID,90.899,VALID,0,VALID,24.0058,VALID,198,VALID,0.0230469,
2009-02-21, 00:21:04,VALID,1010.23,VALID,0,VALID,90.8685,VALID,0,VALID,23.9863,VALID,198,VALID,0.215625,
2009-02-21, 00:22:04,VALID,1010.22,VALID,0,VALID,90.9142,VALID,0,VALID,24.0058,VALID,198,VALID,0.169531,
2009-02-21, 00:23:04,VALID,1010.2,VALID,0,VALID,91.0667,VALID,0,VALID,24.0058,VALID,198,VALID,0,
2009-02-21, 00:24:04,VALID,1010.16,VALID,0,VALID,91.0973,VALID,0,VALID,23.965,VALID,198,VALID,0,
2009-02-21, 00:25:04,VALID,1010.14,VALID,0,VALID,91.0896,VALID,0,VALID,23.9863,VALID,198,VALID,0,
2009-02-21, 00:26:04,VALID,1010.16,VALID,0,VALID,91.1354,VALID,0,VALID,23.9668,VALID,198,VALID,0,
2009-02-21, 00:27:04,VALID,1010.1,VALID,0,VALID,91.1049,VALID,0,VALID,23.9455,VALID,198,VALID,0,
2009-02-21, 00:28:04,VALID,1010.1,VALID,0,VALID,91.0667,VALID,0,VALID,23.9668,VALID,198,VALID,0,
2009-02-21, 00:29:04,VALID,1010.09,VALID,0,VALID,91.0515,VALID,0,VALID,23.9668,VALID,198,VALID,0,
2009-02-21, 00:30:04,VALID,1010.06,VALID,0,VALID,91.1735,VALID,0,VALID,23.9863,VALID,198,VALID,0,
2009-02-21, 00:31:04,VALID,1010.05,VALID,0,VALID,91.326,VALID,0,VALID,23.9863,VALID,198,VALID,0,
2009-02-21, 00:32:04,VALID,1010.04,VALID,0,VALID,91.4175,VALID,0,VALID,23.9863,VALID,198,VALID,0,
2009-02-21, 00:33:04,VALID,1010.02,VALID,0,VALID,91.4557,VALID,0,VALID,23.9473,VALID,198,VALID,0.0359375,
2009-02-21, 00:34:04,VALID,1010.01,VALID,0,VALID,91.5472,VALID,0,VALID,23.9455,VALID,198,VALID,0,
2009-02-21, 00:35:04,VALID,1010,VALID,0,VALID,91.6539,VALID,0,VALID,23.9668,VALID,198,VALID,0,
2009-02-21, 00:36:04,VALID,1009.99,VALID,0,VALID,91.7149,VALID,0,VALID,23.9668,VALID,198,VALID,0.103125,
2009-02-21, 00:37:04,VALID,1010,VALID,0,VALID,91.7149,VALID,0,VALID,23.9455,VALID,198,VALID,0,
2009-02-21, 00:38:04,VALID,1009.99,VALID,0,VALID,91.7149,VALID,0,VALID,23.9473,VALID,198,VALID,0.00546875,
2009-02-21, 00:39:04,VALID,1009.99,VALID,0,VALID,91.6539,VALID,0,VALID,23.9278,VALID,198,VALID,0.00507812,
2009-02-21, 00:40:04,VALID,1009.97,VALID,0,VALID,91.6311,VALID,0,VALID,23.9278,VALID,198,VALID,0.0460938,
2009-02-21, 00:41:04,VALID,1009.94,VALID,0,VALID,91.6005,VALID,0,VALID,23.9084,VALID,198,VALID,0.178516,
2009-02-21, 00:42:04,VALID,1009.92,VALID,0,VALID,91.6082,VALID,0,VALID,23.9084,VALID,198,VALID,0.0277344,
2009-02-21, 00:43:04,VALID,1009.94,VALID,0,VALID,91.6158,VALID,0,VALID,23.8889,VALID,198,VALID,0,
2009-02-21, 00:44:04,VALID,1009.94,VALID,0,VALID,91.6387,VALID,0,VALID,23.8676,VALID,198,VALID,0,
2009-02-21, 00:45:04,VALID,1009.91,VALID,0,VALID,91.6921,VALID,0,VALID,23.8481,VALID,198,VALID,0.0789063,
2009-02-21, 00:46:04,VALID,1009.91,VALID,0,VALID,91.7302,VALID,0,VALID,23.8694,VALID,198,VALID,0,
2009-02-21, 00:47:04,VALID,1009.91,VALID,0,VALID,91.7759,VALID,0,VALID,23.8694,VALID,198,VALID,0,
2009-02-21, 00:48:04,VALID,1009.87,VALID,0,VALID,91.8064,VALID,0,VALID,23.8499,VALID,198,VALID,0,
2009-02-21, 00:49:04,VALID,1009.88,VALID,0,VALID,91.837,VALID,0,VALID,23.8286,VALID,198,VALID,0,
2009-02-21, 00:50:04,VALID,1009.86,VALID,0,VALID,91.8522,VALID,0,VALID,23.8286,VALID,198,VALID,0,
2009-02-21, 00:51:04,VALID,1009.85,VALID,0,VALID,91.8446,VALID,0,VALID,23.8109,VALID,19,VALID,0,
2009-02-21, 00:52:04,VALID,1009.85,VALID,0,VALID,91.8598,VALID,0,VALID,23.7914,VALID,20,VALID,0,
2009-02-21, 00:53:04,VALID,1009.86,VALID,0,VALID,91.898,VALID,0,VALID,23.772,VALID,21,VALID,0,
2009-02-21, 00:54:04,VALID,1009.85,VALID,0,VALID,91.9818,VALID,0,VALID,23.7701,VALID,21,VALID,0,
2009-02-21, 00:55:04,VALID,1009.84,VALID,0,VALID,92.02,VALID,0,VALID,23.772,VALID,21,VALID,0,
2009-02-21, 00:56:04,VALID,1009.83,VALID,0,VALID,92.081,VALID,0,VALID,23.7525,VALID,21,VALID,0,
2009-02-21, 00:57:04,VALID,1009.79,VALID,0,VALID,92.1267,VALID,0,VALID,23.7525,VALID,21,VALID,0,
2009-02-21, 00:58:04,VALID,1009.79,VALID,0,VALID,92.1877,VALID,0,VALID,23.733,VALID,21,VALID,0,
2009-02-21, 00:59:04,VALID,1009.77,VALID,0,VALID,92.2335,VALID,0,VALID,23.7525,VALID,21,VALID,0,
2009-02-21, 01:00:04,VALID,1009.79,VALID,0,VALID,92.2716,VALID,0,VALID,23.733,VALID,21,VALID,0,
2009-02-21, 01:01:04,VALID,1009.79,VALID,0,VALID,92.3021,VALID,0,VALID,23.733,VALID,21,VALID,0,
2009-02-21, 01:02:04,VALID,1009.79,VALID,0,VALID,92.3402,VALID,0,VALID,23.7117,VALID,21,VALID,0,
2009-02-21, 01:03:04,VALID,1009.79,VALID,0,VALID,92.3631,VALID,0,VALID,23.7135,VALID,21,VALID,0,
2009-02-21, 01:04:04,VALID,1009.8,VALID,0,VALID,92.3936,VALID,0,VALID,23.7135,VALID,21,VALID,0,
2009-02-21, 01:05:04,VALID,1009.8,VALID,0,VALID,92.4318,VALID,0,VALID,23.7135,VALID,21,VALID,0,
2009-02-21, 01:06:04,VALID,1009.79,VALID,0,VALID,92.4851,VALID,0,VALID,23.733,VALID,21,VALID,0,
2009-02-21, 01:07:04,VALID,1009.79,VALID,0,VALID,92.5156,VALID,0,VALID,23.733,VALID,21,VALID,0,
2009-02-21, 01:08:04,VALID,1009.76,VALID,0,VALID,92.5538,VALID,0,VALID,23.733,VALID,21,VALID,0,
2009-02-21, 01:09:04,VALID,1009.73,VALID,0,VALID,92.5385,VALID,0,VALID,23.733,VALID,21,VALID,0,
2009-02-21, 01:10:04,VALID,1009.72,VALID,0,VALID,92.5309,VALID,0,VALID,23.7135,VALID,21,VALID,0,
2009-02-21, 01:11:04,VALID,1009.72,VALID,0,VALID,92.508,VALID,0,VALID,23.7135,VALID,21,VALID,0,
2009-02-21, 01:12:04,VALID,1009.72,VALID,0,VALID,92.4546,VALID,0,VALID,23.694,VALID,21,VALID,0,
2009-02-21, 01:13:04,VALID,1009.72,VALID,0,VALID,92.4165,VALID,0,VALID,23.694,VALID,21,VALID,0,
2009-02-21, 01:14:04,VALID,1009.72,VALID,0,VALID,92.386,VALID,0,VALID,23.7135,VALID,21,VALID,0,
2009-02-21, 01:15:04,VALID,1009.71,VALID,0,VALID,92.3708,VALID,0,VALID,23.694,VALID,21,VALID,0,
2009-02-21, 01:16:04,VALID,1009.71,VALID,0,VALID,92.3555,VALID,0,VALID,23.694,VALID,21,VALID,0,
2009-02-21, 01:17:04,VALID,1009.71,VALID,0,VALID,92.3402,VALID,0,VALID,23.7135,VALID,21,VALID,0,
2009-02-21, 01:18:04,VALID,1009.7,VALID,0,VALID,92.3555,VALID,0,VALID,23.7135,VALID,21,VALID,0,
2009-02-21, 01:19:04,VALID,1009.7,VALID,0,VALID,92.3784,VALID,0,VALID,23.7135,VALID,21,VALID,0,
2009-02-21, 01:20:04,VALID,1009.7,VALID,0,VALID,92.4241,VALID,0,VALID,23.7135,VALID,21,VALID,0,
2009-02-21, 01:21:04,VALID,1009.69,VALID,0,VALID,92.447,VALID,0,VALID,23.7135,VALID,23,VALID,0,
2009-02-21, 01:22:04,VALID,1009.68,VALID,0,VALID,92.4623,VALID,0,VALID,23.733,VALID,40,VALID,0,
2009-02-21, 01:23:04,VALID,1009.67,VALID,0,VALID,92.4851,VALID,0,VALID,23.7135,VALID,40,VALID,0,
2009-02-21, 01:24:04,VALID,1009.64,VALID,0,VALID,92.5004,VALID,0,VALID,23.733,VALID,49,VALID,0,
2009-02-21, 01:25:04,VALID,1009.66,VALID,0,VALID,92.4775,VALID,0,VALID,23.733,VALID,99,VALID,0,
2009-02-21, 01:26:04,VALID,1009.67,VALID,0,VALID,92.4623,VALID,0,VALID,23.7135,VALID,99,VALID,0,
2009-02-21, 01:27:04,VALID,1009.62,VALID,0,VALID,92.4699,VALID,0,VALID,23.733,VALID,99,VALID,0,
2009-02-21, 01:28:04,VALID,1009.59,VALID,0,VALID,92.4546,VALID,0,VALID,23.733,VALID,99,VALID,0,
2009-02-21, 01:29:04,VALID,1009.63,VALID,0,VALID,92.4623,VALID,0,VALID,23.733,VALID,99,VALID,0,
2009-02-21, 01:30:04,VALID,1009.59,VALID,0,VALID,92.4546,VALID,0,VALID,23.733,VALID,99,VALID,0,
2009-02-21, 01:31:04,VALID,1009.57,VALID,0,VALID,92.4165,VALID,0,VALID,23.6922,VALID,99,VALID,0,
2009-02-21, 01:32:04,VALID,1009.54,VALID,0,VALID,92.3936,VALID,0,VALID,23.694,VALID,99,VALID,0,
2009-02-21, 01:33:04,VALID,1009.56,VALID,0,VALID,92.3555,VALID,0,VALID,23.6745,VALID,99,VALID,0,
2009-02-21, 01:34:04,VALID,1009.53,VALID,0,VALID,92.3479,VALID,0,VALID,23.6745,VALID,99,VALID,0,
2009-02-21, 01:35:04,VALID,1009.52,VALID,0,VALID,92.3174,VALID,0,VALID,23.655,VALID,114,VALID,0,
2009-02-21, 01:36:04,VALID,1009.5,VALID,0,VALID,92.2869,VALID,0,VALID,23.655,VALID,125,VALID,0,
2009-02-21, 01:37:04,VALID,1009.46,VALID,0,VALID,92.264,VALID,0,VALID,23.6356,VALID,115,VALID,0.574219,
2009-02-21, 01:38:04,VALID,1009.45,VALID,0,VALID,92.2411,VALID,0,VALID,23.6161,VALID,123,VALID,0.358594,
2009-02-21, 01:39:04,VALID,1009.44,VALID,0,VALID,92.2487,VALID,0,VALID,23.6161,VALID,118,VALID,0.282422,
2009-02-21, 01:40:04,VALID,1009.44,VALID,0,VALID,92.2564,VALID,0,VALID,23.6161,VALID,118,VALID,0,
2009-02-21, 01:41:04,VALID,1009.41,VALID,0,VALID,92.2564,VALID,0,VALID,23.5753,VALID,114,VALID,0,
2009-02-21, 01:42:04,VALID,1009.43,VALID,0,VALID,92.264,VALID,0,VALID,23.5966,VALID,109,VALID,0.317969,
2009-02-21, 01:43:04,VALID,1009.39,VALID,0,VALID,92.325,VALID,0,VALID,23.6161,VALID,108,VALID,0.173828,
2009-02-21, 01:44:04,VALID,1009.38,VALID,0,VALID,92.3708,VALID,0,VALID,23.6161,VALID,109,VALID,0,
2009-02-21, 01:45:04,VALID,1009.35,VALID,0,VALID,92.4089,VALID,0,VALID,23.6356,VALID,109,VALID,0,
2009-02-21, 01:46:04,VALID,1009.37,VALID,0,VALID,92.4318,VALID,0,VALID,23.5948,VALID,109,VALID,0,
2009-02-21, 01:47:04,VALID,1009.34,VALID,0,VALID,92.4928,VALID,0,VALID,23.6161,VALID,109,VALID,0,
2009-02-21, 01:48:04,VALID,1009.32,VALID,0,VALID,92.4775,VALID,0,VALID,23.6161,VALID,109,VALID,0,
2009-02-21, 01:49:04,VALID,1009.3,VALID,0,VALID,92.4546,VALID,0,VALID,23.6161,VALID,109,VALID,0,
2009-02-21, 01:50:04,VALID,1009.3,VALID,0,VALID,92.4318,VALID,0,VALID,23.5966,VALID,109,VALID,0,
2009-02-21, 01:51:04,VALID,1009.29,VALID,0,VALID,92.4318,VALID,0,VALID,23.5753,VALID,109,VALID,0,
2009-02-21, 01:52:04,VALID,1009.28,VALID,0,VALID,92.4089,VALID,0,VALID,23.5966,VALID,109,VALID,0,
2009-02-21, 01:53:04,VALID,1009.27,VALID,0,VALID,92.4318,VALID,0,VALID,23.5966,VALID,109,VALID,0,
2009-02-21, 01:54:04,VALID,1009.26,VALID,0,VALID,92.4013,VALID,0,VALID,23.5753,VALID,105,VALID,0,
2009-02-21, 01:55:04,VALID,1009.24,VALID,0,VALID,92.3784,VALID,0,VALID,23.5966,VALID,63,VALID,0.0765625,
2009-02-21, 01:56:04,VALID,1009.23,VALID,0,VALID,92.4241,VALID,0,VALID,23.5558,VALID,58,VALID,0.435156,
2009-02-21, 01:57:04,VALID,1009.25,VALID,0,VALID,92.4394,VALID,0,VALID,23.5576,VALID,49,VALID,0.284766,
2009-02-21, 01:58:04,VALID,1009.21,VALID,0,VALID,92.4775,VALID,0,VALID,23.5381,VALID,42,VALID,0.298828,
2009-02-21, 01:59:04,VALID,1009.21,VALID,0,VALID,92.508,VALID,0,VALID,23.5381,VALID,42,VALID,0.180859,
2009-02-21, 02:00:04,VALID,1009.22,VALID,0,VALID,92.569,VALID,0,VALID,23.5186,VALID,41,VALID,0.190234,
2009-02-21, 02:01:04,VALID,1009.2,VALID,0,VALID,92.6071,VALID,0,VALID,23.4974,VALID,41,VALID,0.226563,
2009-02-21, 02:02:04,VALID,1009.17,VALID,0,VALID,92.6453,VALID,0,VALID,23.4779,VALID,40,VALID,0.386719,
2009-02-21, 02:03:04,VALID,1009.15,VALID,0,VALID,92.6834,VALID,0,VALID,23.4779,VALID,48,VALID,0.596484,
2009-02-21, 02:04:04,VALID,1009.15,VALID,0,VALID,92.6834,VALID,0,VALID,23.4584,VALID,47,VALID,0.317969,
2009-02-21, 02:05:04,VALID,1009.15,VALID,0,VALID,92.7215,VALID,0,VALID,23.4602,VALID,47,VALID,0.312109,
2009-02-21, 02:06:04,VALID,1009.12,VALID,0,VALID,92.752,VALID,0,VALID,23.4389,VALID,13,VALID,0.350781,
2009-02-21, 02:07:04,VALID,1009.12,VALID,0,VALID,92.7825,VALID,0,VALID,23.4602,VALID,13,VALID,0.23125,
2009-02-21, 02:08:04,VALID,1009.09,VALID,0,VALID,92.8283,VALID,0,VALID,23.4389,VALID,13,VALID,0,
2009-02-21, 02:09:04,VALID,1009.07,VALID,0,VALID,92.8664,VALID,0,VALID,23.4194,VALID,13,VALID,0,
2009-02-21, 02:10:04,VALID,1009.08,VALID,0,VALID,92.8588,VALID,0,VALID,23.4194,VALID,13,VALID,0,
2009-02-21, 02:11:04,VALID,1009.07,VALID,0,VALID,92.8664,VALID,0,VALID,23.3805,VALID,13,VALID,0,
2009-02-21, 02:12:04,VALID,1009.06,VALID,0,VALID,92.8969,VALID,0,VALID,23.4017,VALID,13,VALID,0,
2009-02-21, 02:13:04,VALID,1009.07,VALID,0,VALID,92.9122,VALID,0,VALID,23.4,VALID,13,VALID,0,
2009-02-21, 02:14:04,VALID,1009.09,VALID,0,VALID,92.9427,VALID,0,VALID,23.4017,VALID,15,VALID,0,
2009-02-21, 02:15:04,VALID,1009.08,VALID,0,VALID,92.9351,VALID,0,VALID,23.3805,VALID,19,VALID,0,
2009-02-21, 02:16:04,VALID,1009.08,VALID,0,VALID,92.9579,VALID,0,VALID,23.3823,VALID,46,VALID,0.407813,
2009-02-21, 02:17:04,VALID,1009.1,VALID,0,VALID,92.9732,VALID,0,VALID,23.3628,VALID,66,VALID,0.555469,
2009-02-21, 02:18:04,VALID,1009.08,VALID,0,VALID,93.0037,VALID,0,VALID,23.3415,VALID,66,VALID,0.528906,
2009-02-21, 02:19:04,VALID,1009.09,VALID,0,VALID,93.0418,VALID,0,VALID,23.361,VALID,67,VALID,0.482422,
2009-02-21, 02:20:04,VALID,1009.1,VALID,0,VALID,93.0494,VALID,0,VALID,23.3628,VALID,72,VALID,0.500391,
2009-02-21, 02:21:04,VALID,1009.07,VALID,0,VALID,93.0571,VALID,0,VALID,23.3628,VALID,77,VALID,0.665625,
2009-02-21, 02:22:04,VALID,1009.08,VALID,0,VALID,93.0647,VALID,0,VALID,23.3415,VALID,74,VALID,0.648828,
2009-02-21, 02:23:04,VALID,1009.08,VALID,0,VALID,93.0723,VALID,0,VALID,23.3433,VALID,72,VALID,0.698828,
2009-02-21, 02:24:04,VALID,1009.07,VALID,0,VALID,93.0494,VALID,0,VALID,23.322,VALID,85,VALID,0.962109,
2009-02-21, 02:25:04,VALID,1009.08,VALID,0,VALID,93.0571,VALID,0,VALID,23.3238,VALID,78,VALID,0.710547,
2009-02-21, 02:26:04,VALID,1009.08,VALID,0,VALID,93.0647,VALID,0,VALID,23.3238,VALID,77,VALID,0.286328,
2009-02-21, 02:27:04,VALID,1009.03,VALID,0,VALID,93.0723,VALID,0,VALID,23.3238,VALID,96,VALID,0,
2009-02-21, 02:28:04,VALID,1009.07,VALID,0,VALID,93.0571,VALID,0,VALID,23.3238,VALID,92,VALID,0,
2009-02-21, 02:29:04,VALID,1009.06,VALID,0,VALID,93.0647,VALID,0,VALID,23.3026,VALID,74,VALID,0,
2009-02-21, 02:30:04,VALID,1009.04,VALID,0,VALID,93.0647,VALID,0,VALID,23.3043,VALID,74,VALID,0,
2009-02-21, 02:31:04,VALID,1009.04,VALID,0,VALID,93.0799,VALID,0,VALID,23.2831,VALID,60,VALID,0.250781,
2009-02-21, 02:32:04,VALID,1009.07,VALID,0,VALID,93.1105,VALID,0,VALID,23.2831,VALID,64,VALID,0.198828,
2009-02-21, 02:33:04,VALID,1009.06,VALID,0,VALID,93.1105,VALID,0,VALID,23.3026,VALID,64,VALID,0,
2009-02-21, 02:34:04,VALID,1009.09,VALID,0,VALID,93.1028,VALID,0,VALID,23.3043,VALID,64,VALID,0,
2009-02-21, 02:35:04,VALID,1009.1,VALID,0,VALID,93.1333,VALID,0,VALID,23.2831,VALID,64,VALID,0.175,
2009-02-21, 02:36:04,VALID,1009.11,VALID,0,VALID,93.1257,VALID,0,VALID,23.2831,VALID,64,VALID,0,
2009-02-21, 02:37:04,VALID,1009.09,VALID,0,VALID,93.1105,VALID,0,VALID,23.2831,VALID,64,VALID,0,
2009-02-21, 02:38:04,VALID,1009.13,VALID,0,VALID,93.141,VALID,0,VALID,23.3043,VALID,64,VALID,0.0644531,
2009-02-21, 02:39:04,VALID,1009.14,VALID,0,VALID,93.1333,VALID,0,VALID,23.3043,VALID,63,VALID,0.289063,
2009-02-21, 02:40:04,VALID,1009.11,VALID,0,VALID,93.1486,VALID,0,VALID,23.3043,VALID,57,VALID,0.132422,
2009-02-21, 02:41:04,VALID,1009.13,VALID,0,VALID,93.141,VALID,0,VALID,23.3043,VALID,57,VALID,0,
2009-02-21, 02:42:04,VALID,1009.16,VALID,0,VALID,93.1562,VALID,0,VALID,23.3043,VALID,57,VALID,0,
2009-02-21, 02:43:04,VALID,1009.14,VALID,0,VALID,93.1791,VALID,0,VALID,23.2831,VALID,57,VALID,0,
2009-02-21, 02:44:04,VALID,1009.13,VALID,0,VALID,93.1638,VALID,0,VALID,23.3043,VALID,57,VALID,0,
2009-02-21, 02:45:04,VALID,1009.14,VALID,0,VALID,93.1715,VALID,0,VALID,23.2831,VALID,57,VALID,0,
2009-02-21, 02:46:04,VALID,1009.12,VALID,0,VALID,93.202,VALID,0,VALID,23.3026,VALID,57,VALID,0,
2009-02-21, 02:47:04,VALID,1009.13,VALID,0,VALID,93.202,VALID,0,VALID,23.3238,VALID,57,VALID,0,
2009-02-21, 02:48:04,VALID,1009.12,VALID,0,VALID,93.1867,VALID,0,VALID,23.2831,VALID,57,VALID,0,
2009-02-21, 02:49:04,VALID,1009.09,VALID,0,VALID,93.2096,VALID,0,VALID,23.3026,VALID,57,VALID,0,
2009-02-21, 02:50:04,VALID,1009.08,VALID,0,VALID,93.2248,VALID,0,VALID,23.322,VALID,57,VALID,0,
2009-02-21, 02:51:04,VALID,1009.05,VALID,0,VALID,93.2401,VALID,0,VALID,23.3628,VALID,57,VALID,0,
2009-02-21, 02:52:04,VALID,1009.07,VALID,0,VALID,93.2553,VALID,0,VALID,23.3628,VALID,57,VALID,0,
2009-02-21, 02:53:04,VALID,1009.05,VALID,0,VALID,93.2706,VALID,0,VALID,23.3823,VALID,57,VALID,0,
2009-02-21, 02:54:04,VALID,1009.07,VALID,0,VALID,93.2706,VALID,0,VALID,23.361,VALID,57,VALID,0,
2009-02-21, 02:55:04,VALID,1009.07,VALID,0,VALID,93.2858,VALID,0,VALID,23.4017,VALID,57,VALID,0,
2009-02-21, 02:56:04,VALID,1009.03,VALID,0,VALID,93.2782,VALID,0,VALID,23.3823,VALID,57,VALID,0,
2009-02-21, 02:57:04,VALID,1009.06,VALID,0,VALID,93.263,VALID,0,VALID,23.3823,VALID,57,VALID,0,
2009-02-21, 02:58:04,VALID,1009.06,VALID,0,VALID,93.263,VALID,0,VALID,23.361,VALID,57,VALID,0,
2009-02-21, 02:59:04,VALID,1009.05,VALID,0,VALID,93.2553,VALID,0,VALID,23.361,VALID,57,VALID,0,
2009-02-21, 03:00:04,VALID,1009.08,VALID,0,VALID,93.2248,VALID,0,VALID,23.3628,VALID,57,VALID,0,
2009-02-21, 03:01:04,VALID,1009.08,VALID,0,VALID,93.2401,VALID,0,VALID,23.3628,VALID,57,VALID,0,
2009-02-21, 03:02:04,VALID,1009.08,VALID,0,VALID,93.2401,VALID,0,VALID,23.361,VALID,57,VALID,0,
2009-02-21, 03:03:04,VALID,1009.07,VALID,0,VALID,93.2325,VALID,0,VALID,23.361,VALID,57,VALID,0,
2009-02-21, 03:04:04,VALID,1009.07,VALID,0,VALID,93.2477,VALID,0,VALID,23.3805,VALID,57,VALID,0,
2009-02-21, 03:05:04,VALID,1009.08,VALID,0,VALID,93.2401,VALID,0,VALID,23.3805,VALID,57,VALID,0,
2009-02-21, 03:06:04,VALID,1009.07,VALID,0,VALID,93.2248,VALID,0,VALID,23.3805,VALID,57,VALID,0,
2009-02-21, 03:07:04,VALID,1009.06,VALID,0,VALID,93.2172,VALID,0,VALID,23.3823,VALID,85,VALID,0,
2009-02-21, 03:08:04,VALID,1009.05,VALID,0,VALID,93.1867,VALID,0,VALID,23.361,VALID,113,VALID,0,
2009-02-21, 03:09:04,VALID,1009.05,VALID,0,VALID,93.1943,VALID,0,VALID,23.3415,VALID,113,VALID,0,
2009-02-21, 03:10:04,VALID,1009.04,VALID,0,VALID,93.1943,VALID,0.105969,VALID,23.3415,VALID,113,VALID,0,
2009-02-21, 03:11:04,VALID,1009.07,VALID,0,VALID,93.1867,VALID,0,VALID,23.3628,VALID,113,VALID,0,
2009-02-21, 03:12:04,VALID,1009.07,VALID,0,VALID,93.1943,VALID,0,VALID,23.3415,VALID,113,VALID,0,
2009-02-21, 03:13:04,VALID,1009.07,VALID,0,VALID,93.1943,VALID,0,VALID,23.3415,VALID,113,VALID,0,
2009-02-21, 03:14:04,VALID,1009.08,VALID,0,VALID,93.202,VALID,0,VALID,23.3415,VALID,113,VALID,0,
2009-02-21, 03:15:04,VALID,1009.08,VALID,0,VALID,93.2325,VALID,0,VALID,23.361,VALID,113,VALID,0,
2009-02-21, 03:16:04,VALID,1009.06,VALID,0,VALID,93.2553,VALID,0,VALID,23.3823,VALID,113,VALID,0,
2009-02-21, 03:17:04,VALID,1009.06,VALID,0,VALID,93.2553,VALID,0,VALID,23.3805,VALID,113,VALID,0,
2009-02-21, 03:18:04,VALID,1009.07,VALID,0,VALID,93.2935,VALID,0,VALID,23.361,VALID,113,VALID,0,
2009-02-21, 03:19:04,VALID,1009.04,VALID,0,VALID,93.2553,VALID,0,VALID,23.3823,VALID,113,VALID,0,
2009-02-21, 03:20:04,VALID,1009.06,VALID,0,VALID,93.263,VALID,0,VALID,23.3628,VALID,113,VALID,0,
2009-02-21, 03:21:04,VALID,1009.08,VALID,0,VALID,93.2706,VALID,0,VALID,23.3415,VALID,114,VALID,0,
2009-02-21, 03:22:04,VALID,1009.09,VALID,0,VALID,93.2553,VALID,0,VALID,23.361,VALID,114,VALID,0,
2009-02-21, 03:23:04,VALID,1009.1,VALID,0,VALID,93.3087,VALID,0,VALID,23.3628,VALID,121,VALID,0.45625,
2009-02-21, 03:24:04,VALID,1009.11,VALID,0,VALID,93.3087,VALID,0,VALID,23.361,VALID,100,VALID,0.589844,
2009-02-21, 03:25:04,VALID,1009.12,VALID,0,VALID,93.2782,VALID,0,VALID,23.3415,VALID,91,VALID,0.702734,
2009-02-21, 03:26:04,VALID,1009.13,VALID,0,VALID,93.2858,VALID,0,VALID,23.3628,VALID,101,VALID,0.655859,
2009-02-21, 03:27:04,VALID,1009.15,VALID,0,VALID,93.2935,VALID,0,VALID,23.3823,VALID,66,VALID,0,
2009-02-21, 03:28:04,VALID,1009.17,VALID,0,VALID,93.263,VALID,0,VALID,23.361,VALID,46,VALID,0.280469,
2009-02-21, 03:29:04,VALID,1009.16,VALID,0,VALID,93.2401,VALID,0,VALID,23.3628,VALID,46,VALID,0,
2009-02-21, 03:30:04,VALID,1009.17,VALID,0,VALID,93.2325,VALID,0,VALID,23.361,VALID,47,VALID,0,
2009-02-21, 03:31:04,VALID,1009.17,VALID,0,VALID,93.2248,VALID,0,VALID,23.3415,VALID,91,VALID,0.323047,
2009-02-21, 03:32:04,VALID,1009.21,VALID,0,VALID,93.2172,VALID,0,VALID,23.3823,VALID,91,VALID,0,
2009-02-21, 03:33:04,VALID,1009.24,VALID,0,VALID,93.2248,VALID,0,VALID,23.361,VALID,91,VALID,0,
2009-02-21, 03:34:04,VALID,1009.28,VALID,0,VALID,93.2172,VALID,0,VALID,23.3823,VALID,91,VALID,0,
2009-02-21, 03:35:04,VALID,1009.27,VALID,0,VALID,93.202,VALID,0,VALID,23.4017,VALID,90,VALID,0.345703,
2009-02-21, 03:36:04,VALID,1009.3,VALID,0,VALID,93.1867,VALID,0,VALID,23.361,VALID,83,VALID,0.425781,
2009-02-21, 03:37:04,VALID,1009.3,VALID,0,VALID,93.1715,VALID,0,VALID,23.3823,VALID,53,VALID,0.557813,
2009-02-21, 03:38:04,VALID,1009.33,VALID,0,VALID,93.1181,VALID,0,VALID,23.3628,VALID,34,VALID,0.539063,
2009-02-21, 03:39:04,VALID,1009.28,VALID,0,VALID,93.1181,VALID,0,VALID,23.3433,VALID,49,VALID,0.656641,
2009-02-21, 03:40:04,VALID,1009.28,VALID,0,VALID,93.1028,VALID,0,VALID,23.3026,VALID,52,VALID,0.558203,
2009-02-21, 03:41:04,VALID,1009.32,VALID,0,VALID,93.0876,VALID,0,VALID,23.3026,VALID,66,VALID,0.768359,
2009-02-21, 03:42:04,VALID,1009.28,VALID,0,VALID,93.0952,VALID,0,VALID,23.2831,VALID,44,VALID,0.311328,
2009-02-21, 03:43:04,VALID,1009.3,VALID,0,VALID,93.1028,VALID,0,VALID,23.3043,VALID,44,VALID,0.242578,
2009-02-21, 03:44:04,VALID,1009.32,VALID,0,VALID,93.1105,VALID,0,VALID,23.2636,VALID,44,VALID,0.188281,
2009-02-21, 03:45:04,VALID,1009.31,VALID,0,VALID,93.141,VALID,0.105969,VALID,23.2848,VALID,58,VALID,0.0480469,
2009-02-21, 03:46:04,VALID,1009.34,VALID,0,VALID,93.1562,VALID,0,VALID,23.2848,VALID,58,VALID,0,
2009-02-21, 03:47:04,VALID,1009.33,VALID,0,VALID,93.1791,VALID,0,VALID,23.2848,VALID,58,VALID,0.244141,
2009-02-21, 03:48:04,VALID,1009.34,VALID,0,VALID,93.1715,VALID,0.105969,VALID,23.2848,VALID,71,VALID,0.311719,
2009-02-21, 03:49:04,VALID,1009.36,VALID,0,VALID,93.1943,VALID,0,VALID,23.2636,VALID,108,VALID,0.31875,
2009-02-21, 03:50:04,VALID,1009.36,VALID,0,VALID,93.1943,VALID,0,VALID,23.2654,VALID,102,VALID,0.534766,
2009-02-21, 03:51:04,VALID,1009.39,VALID,0,VALID,93.1943,VALID,0,VALID,23.2848,VALID,76,VALID,0.538281,
2009-02-21, 03:52:04,VALID,1009.37,VALID,0,VALID,93.2096,VALID,0,VALID,23.2654,VALID,96,VALID,0.763281,
2009-02-21, 03:53:04,VALID,1009.36,VALID,0,VALID,93.2248,VALID,0,VALID,23.2848,VALID,97,VALID,0.747656,
2009-02-21, 03:54:04,VALID,1009.36,VALID,0,VALID,93.2096,VALID,0,VALID,23.2831,VALID,87,VALID,0.428906,
2009-02-21, 03:55:04,VALID,1009.38,VALID,0,VALID,93.2325,VALID,0,VALID,23.2831,VALID,87,VALID,0.5125,
2009-02-21, 03:56:04,VALID,1009.37,VALID,0,VALID,93.202,VALID,0,VALID,23.3043,VALID,90,VALID,0.792969,